Melbourne Airport, Victoria

10:45 AM AEST on September 01, 2016 (GMT +1000)
Melbourne International

Weather History for YMML - November, 2013

Change the Weather History Date:

Monday, November 25, 2013

  Actual Average Record
Temperature  
Mean Temperature 60 °F -  
Max Temperature 70 °F 72 °F 96 °F (1997)
Min Temperature 51 °F 50 °F 46 °F (1999)
Degree Days  
Heating Degree Days 4    
Growing Degree Days 10 (Base 50)    
Moisture  
Dew Point 48 °F    
Average Humidity 62    
Maximum Humidity 94    
Minimum Humidity 31    
Precipitation  
Precipitation 0.00 in 0.07 in - ()
Sea Level Pressure  
Sea Level Pressure 29.93 in    
Wind  
Wind Speed 11 mph ()    
Max Wind Speed 20 mph    
Max Gust Speed -    
Visibility 8.4 miles    
Events      
Averages and records for this station are not official NWS values.
T = Trace of Precipitation, MM = Missing Value Source: Averaged Metar Reports

Daily Weather History Graph

Daily Weather History Graph

Search for Another Location

Airport or City:

Trip Planner

Search our weather history database for the weather conditions in past years. The results will help you decide how hot, cold, wet, or windy it might be!

Date:

Astronomy

Nov. 25, 2013 Rise Set
Actual Time 5:54 AM AEDT 8:20 PM AEDT
Civil Twilight 5:24 AM AEDT 8:50 PM AEDT
Nautical Twilight 4:47 AM AEDT 9:27 PM AEDT
Astronomical Twilight 4:07 AM AEDT 10:09 PM AEDT
Moon 12:57 AM AEDT (11/25) 12:16 PM AEDT (11/25)
Length of Visible Light 15h 25m
Length of Day
14h 25m
Waning Gibbous, 57% of the Moon is Illuminated
Nov 25
Waning Gibbous
Nov 26
Last Quarter
Dec 3
New
Dec 10
First Quarter
Dec 17
Full

Hourly Weather History & Observations

Time (AEDT) Temp. Dew Point Humidity Pressure Visibility Wind Dir Wind Speed Gust Speed Precip Events Conditions
12:00 AM 56 °F 47 °F 64% 29.95 in 19 mi SSE 10.4 mph - -   Partly Cloudy
12:00 AM 55.4 °F 46.4 °F 72% 29.95 in 6.2 mi SSE 10.4 mph - N/A   Mostly Cloudy
12:30 AM 55.4 °F 46.4 °F 72% 29.95 in 6.2 mi SSE 11.5 mph - N/A   Mostly Cloudy
1:00 AM 56 °F 46 °F 59% 29.94 in - SSE 12.7 mph - -  
1:00 AM 55.4 °F 46.4 °F 72% 29.95 in 6.2 mi SSE 12.7 mph - N/A   Mostly Cloudy
1:30 AM 55.4 °F 46.4 °F 72% 29.95 in 6.2 mi SSE 11.5 mph - N/A   Mostly Cloudy
2:00 AM 55 °F 47 °F 68% 29.94 in - SSE 10.4 mph - -  
2:00 AM 55.4 °F 48.2 °F 77% 29.92 in 6.2 mi SSE 10.4 mph - N/A   Mostly Cloudy
2:30 AM 55.4 °F 48.2 °F 77% 29.92 in 6.2 mi SSE 15.0 mph - N/A   Mostly Cloudy
3:00 AM 55 °F 49 °F 74% 29.93 in 16 mi SSE 12.7 mph - -   Haze
3:00 AM 55.4 °F 50.0 °F 82% 29.92 in 6.2 mi SSE 12.7 mph - N/A   Mostly Cloudy
3:11 AM 53.6 °F 50.0 °F 88% 29.92 in 4.3 mi SSE 15.0 mph - N/A   Light Drizzle
3:30 AM 53.6 °F 50.0 °F 88% 29.92 in 6.2 mi SE 12.7 mph - N/A   Mostly Cloudy
3:34 AM 53.6 °F 51.8 °F 94% 29.92 in 6.2 mi SE 11.5 mph - N/A   Mostly Cloudy
4:00 AM 54 °F 51 °F 85% 29.92 in - SE 6.9 mph - -  
4:00 AM 53.6 °F 50.0 °F 88% 29.92 in 6.2 mi SE 6.9 mph - N/A   Mostly Cloudy
4:30 AM 55.4 °F 50.0 °F 82% 29.92 in 6.2 mi SE 12.7 mph - N/A   Mostly Cloudy
5:00 AM 55 °F 50 °F 78% 29.93 in - SE 12.7 mph - -  
5:00 AM 55.4 °F 50.0 °F 82% 29.92 in 6.2 mi SE 12.7 mph - N/A   Mostly Cloudy
5:30 AM 55.4 °F 50.0 °F 82% 29.92 in 6.2 mi SE 13.8 mph - N/A   Mostly Cloudy
6:00 AM 55 °F 49 °F 74% 29.94 in 19 mi SE 13.8 mph - -   Partly Cloudy
6:00 AM 55.4 °F 50.0 °F 82% 29.92 in 6.2 mi SE 13.8 mph - N/A   Mostly Cloudy
6:30 AM 55.4 °F 48.2 °F 77% 29.92 in 6.2 mi SE 12.7 mph - N/A   Mostly Cloudy
7:00 AM 56 °F 50 °F 73% 29.94 in - SSE 11.5 mph - -  
7:00 AM 55.4 °F 50.0 °F 82% 29.95 in 6.2 mi SSE 11.5 mph - N/A   Mostly Cloudy
7:30 AM 57.2 °F 50.0 °F 77% 29.95 in 6.2 mi SE 13.8 mph - N/A   Mostly Cloudy
8:00 AM 58 °F 50 °F 66% 29.95 in - SSE 12.7 mph - -  
8:00 AM 59.0 °F 50.0 °F 72% 29.95 in 6.2 mi SSE 12.7 mph - N/A   Mostly Cloudy
8:30 AM 59.0 °F 50.0 °F 72% 29.95 in 6.2 mi SE 10.4 mph - N/A   Mostly Cloudy
9:00 AM 59 °F 49 °F 59% 29.97 in 19 mi South 8.1 mph - -   Partly Cloudy
9:00 AM 59.0 °F 48.2 °F 67% 29.98 in 6.2 mi South 8.1 mph - N/A   Mostly Cloudy
9:30 AM 60.8 °F 50.0 °F 68% 29.95 in 6.2 mi South 10.4 mph - N/A   Mostly Cloudy
10:00 AM 62 °F 50 °F 55% 29.97 in - SSW 8.1 mph - -  
10:00 AM 62.6 °F 50.0 °F 63% 29.95 in 6.2 mi SSW 8.1 mph - N/A   Mostly Cloudy
10:30 AM 62.6 °F 50.0 °F 63% 29.95 in 6.2 mi South 8.1 mph - N/A   Scattered Clouds
11:00 AM 64 °F 49 °F 48% 29.96 in - South 10.4 mph - -  
11:00 AM 64.4 °F 50.0 °F 59% 29.95 in 6.2 mi South 10.4 mph - N/A   Scattered Clouds
11:30 AM 64.4 °F 48.2 °F 56% 29.95 in 6.2 mi South 10.4 mph - N/A   Scattered Clouds
12:00 PM 65 °F 49 °F 45% 29.95 in 19 mi SSW 9.2 mph - -   Partly Cloudy
12:00 PM 64.4 °F 48.2 °F 56% 29.95 in 6.2 mi SSW 9.2 mph - N/A   Scattered Clouds
12:30 PM 68.0 °F 50.0 °F 52% 29.95 in 6.2 mi SSE 11.5 mph - N/A   Scattered Clouds
1:00 PM 67 °F 50 °F 43% 29.94 in - South 15.0 mph - -  
1:00 PM 66.2 °F 50.0 °F 56% 29.95 in 6.2 mi South 15.0 mph - N/A   Partly Cloudy
1:30 PM 68.0 °F 50.0 °F 52% 29.92 in 6.2 mi South 17.3 mph - N/A   Partly Cloudy
2:00 PM 67 °F 49 °F 41% 29.92 in - South 18.4 mph - -  
2:00 PM 68.0 °F 48.2 °F 49% 29.92 in 6.2 mi South 18.4 mph - N/A   Partly Cloudy
2:30 PM 69.8 °F 48.2 °F 46% 29.92 in 6.2 mi South 17.3 mph - N/A   Partly Cloudy
3:00 PM 70 °F 46 °F 31% 29.91 in 19 mi South 16.1 mph - -   Partly Cloudy
3:00 PM 69.8 °F 46.4 °F 43% 29.92 in 6.2 mi South 16.1 mph - N/A   Partly Cloudy
3:30 PM 69.8 °F 48.2 °F 46% 29.89 in 6.2 mi South 16.1 mph - N/A   Partly Cloudy
4:00 PM 69 °F 48 °F 35% 29.90 in - South 17.3 mph - -  
4:00 PM 69.8 °F 48.2 °F 46% 29.89 in 6.2 mi South 17.3 mph - N/A   Partly Cloudy
4:30 PM 69.8 °F 46.4 °F 43% 29.89 in 6.2 mi SSE 19.6 mph - N/A   Partly Cloudy
5:00 PM 70 °F 46 °F 32% 29.89 in - South 18.4 mph - -  
5:00 PM 69.8 °F 46.4 °F 43% 29.89 in 6.2 mi South 18.4 mph - N/A   Partly Cloudy
5:30 PM 68.0 °F 44.6 °F 43% 29.89 in - South 17.3 mph - N/A   Clear
6:00 PM 68 °F 44 °F 31% 29.90 in 19 mi South 16.1 mph - -   Partly Cloudy
6:00 PM 68.0 °F 44.6 °F 43% 29.89 in - South 16.1 mph - N/A   Clear
6:30 PM 68.0 °F 44.6 °F 43% 29.89 in - South 16.1 mph - N/A   Clear
7:00 PM 66 °F 44 °F 34% 29.91 in - South 15.0 mph - -  
7:00 PM 66.2 °F 44.6 °F 46% 29.89 in - South 15.0 mph - N/A   Clear
7:30 PM 64.4 °F 42.8 °F 45% 29.92 in - South 15.0 mph - N/A   Clear
8:00 PM 63 °F 45 °F 40% 29.92 in - South 11.5 mph - -  
8:00 PM 62.6 °F 44.6 °F 52% 29.92 in - South 11.5 mph - N/A   Clear
8:30 PM 60.8 °F 44.6 °F 55% 29.92 in - South 11.5 mph - N/A   Clear
9:00 PM 58 °F 46 °F 55% 29.94 in 19 mi South 8.1 mph - -   Partly Cloudy
9:00 PM 57.2 °F 46.4 °F 67% 29.92 in - South 8.1 mph - N/A   Clear
9:30 PM 57.2 °F 46.4 °F 67% 29.92 in - South 6.9 mph - N/A   Clear
10:00 PM 55 °F 46 °F 63% 29.94 in - SW 4.6 mph - -  
10:00 PM 55.4 °F 46.4 °F 72% 29.92 in - SW 4.6 mph - N/A   Clear
10:30 PM 53.6 °F 46.4 °F 77% 29.95 in - West 8.1 mph - N/A   Clear
11:00 PM 52 °F 47 °F 76% 29.94 in - WNW 6.9 mph - -  
11:00 PM 51.8 °F 46.4 °F 82% 29.95 in - WNW 6.9 mph - N/A   Clear
11:30 PM 51.8 °F 46.4 °F 82% 29.95 in - NW 5.8 mph - N/A   Clear